• In Hungary
  • List of Countries
  • For 7 days
  • Water Temperature
  • Satellite Maps
  • Weather Map
  • News
  • Weather Widgets
  • user-avatar
    Login

    Hourly Weather Stockton

    Today, 21 January, Sunday

    Time Temperature Precipitation Wind Pressure Humidity
    00:00 +7°C° 0 mm 1 mps 768 mmHg 75%
    01:00 +7°C° 0 mm 1 mps 769 mmHg 76%
    02:00 +7°C° 0 mm 1 mps 769 mmHg 77%
    03:00 +7°C° 0 mm 1 mps 769 mmHg 77%
    04:00 +6°C° 0 mm 1 mps 769 mmHg 78%
    05:00 +6°C° 0 mm 1 mps 769 mmHg 78%
    06:00 +6°C° 0 mm 1 mps 770 mmHg 78%
    07:00 +6°C° 0 mm 1 mps 770 mmHg 78%
    08:00 +7°C° 0 mm 1 mps 770 mmHg 72%
    09:00 +9°C° 0 mm 1 mps 770 mmHg 66%
    10:00 +11°C° 0 mm 1 mps 770 mmHg 61%
    11:00 +12°C° 0 mm 1 mps 770 mmHg 56%
    12:00 +14°C° 0 mm 1 mps 770 mmHg 52%
    13:00 +15°C° 0 mm 1 mps 770 mmHg 48%
    14:00 +15°C° 0 mm 1 mps 770 mmHg 51%
    15:00 +14°C° 0 mm 1 mps 769 mmHg 54%
    16:00 +14°C° 0 mm 1 mps 769 mmHg 57%
    17:00 +13°C° 0 mm 1 mps 770 mmHg 59%
    18:00 +12°C° 0 mm 1 mps 770 mmHg 62%
    19:00 +11°C° 0 mm 1 mps 770 mmHg 64%
    20:00 +11°C° 0 mm 1 mps 770 mmHg 64%
    21:00 +11°C° 0 mm 1 mps 770 mmHg 65%
    22:00 +11°C° 0 mm 1 mps 770 mmHg 65%
    23:00 +10°C° 0.4 mm 2 mps 770 mmHg 67%

    Tomorrow, 22 January, Monday

    Time Temperature Precipitation Wind Pressure Humidity
    00:00 +10°C° 0.4 mm 2 mps 770 mmHg 69%
    01:00 +10°C° 0.4 mm 2 mps 770 mmHg 72%
    02:00 +9°C° 0.8 mm 2 mps 770 mmHg 74%
    03:00 +9°C° 0.8 mm 2 mps 769 mmHg 77%
    04:00 +9°C° 0.8 mm 2 mps 769 mmHg 80%
    05:00 +9°C° 0.3 mm 2 mps 769 mmHg 81%
    06:00 +9°C° 0.3 mm 3 mps 769 mmHg 81%
    07:00 +9°C° 0.3 mm 3 mps 769 mmHg 82%
    08:00 +9°C° 0 mm 3 mps 770 mmHg 80%
    09:00 +10°C° 0 mm 3 mps 770 mmHg 79%
    10:00 +10°C° 0 mm 3 mps 770 mmHg 78%
    11:00 +13°C° 0 mm 2 mps 769 mmHg 74%
    12:00 +14°C° 0 mm 2 mps 769 mmHg 70%
    13:00 +16°C° 0 mm 2 mps 769 mmHg 67%
    14:00 +16°C° 0 mm 1 mps 768 mmHg 67%
    15:00 +16°C° 0 mm 1 mps 768 mmHg 68%
    16:00 +15°C° 0 mm 0 mps 768 mmHg 68%
    17:00 +15°C° 0 mm 1 mps 768 mmHg 74%
    18:00 +13°C° 0 mm 1 mps 768 mmHg 80%
    19:00 +12°C° 0 mm 2 mps 769 mmHg 86%
    20:00 +11°C° 0 mm 1 mps 769 mmHg 87%
    21:00 +11°C° 0 mm 1 mps 769 mmHg 89%
    22:00 +10°C° 0 mm 1 mps 769 mmHg 90%
    23:00 +10°C° 0 mm 1 mps 769 mmHg 90%

    Day after tomorrow, 23 January, Tuesday

    Time Temperature Precipitation Wind Pressure Humidity
    00:00 +10°C° 0 mm 1 mps 769 mmHg 90%
    01:00 +10°C° 0 mm 1 mps 769 mmHg 90%
    02:00 +9°C° 0 mm 1 mps 769 mmHg 90%
    03:00 +9°C° 0 mm 1 mps 769 mmHg 91%
    04:00 +9°C° 0 mm 1 mps 768 mmHg 91%
    05:00 +8°C° 0 mm 1 mps 768 mmHg 91%
    06:00 +8°C° 0 mm 1 mps 768 mmHg 90%
    07:00 +8°C° 0 mm 1 mps 768 mmHg 90%
    08:00 +9°C° 0 mm 1 mps 768 mmHg 84%
    09:00 +10°C° 0 mm 0 mps 768 mmHg 79%
    10:00 +12°C° 0 mm 0 mps 768 mmHg 73%
    11:00 +13°C° 0 mm 0 mps 767 mmHg 68%
    12:00 +15°C° 0 mm 1 mps 767 mmHg 64%
    13:00 +18°C° 0 mm 1 mps 766 mmHg 60%
    14:00 +16°C° 0 mm 1 mps 766 mmHg 60%
    15:00 +16°C° 0 mm 1 mps 766 mmHg 60%
    16:00 +16°C° 0 mm 1 mps 765 mmHg 60%
    17:00 +15°C° 0 mm 1 mps 766 mmHg 66%
    18:00 +13°C° 0 mm 1 mps 766 mmHg 72%
    19:00 +12°C° 0 mm 1 mps 766 mmHg 79%
    20:00 +11°C° 0 mm 1 mps 766 mmHg 79%
    21:00 +11°C° 0 mm 1 mps 766 mmHg 80%
    22:00 +11°C° 0 mm 1 mps 766 mmHg 80%
    23:00 +10°C° 0 mm 1 mps 766 mmHg 80%

    24 January, Wednesday

    Time Temperature Precipitation Wind Pressure Humidity
    00:00 +10°C° 0 mm 1 mps 765 mmHg 79%
    01:00 +9°C° 0 mm 2 mps 765 mmHg 78%
    02:00 +9°C° 0 mm 2 mps 765 mmHg 77%
    03:00 +8°C° 0 mm 2 mps 764 mmHg 76%
    04:00 +8°C° 0 mm 2 mps 764 mmHg 75%
    05:00 +8°C° 0 mm 2 mps 764 mmHg 74%
    06:00 +8°C° 0 mm 2 mps 763 mmHg 73%
    07:00 +8°C° 0 mm 2 mps 763 mmHg 72%
    08:00 +10°C° 0 mm 3 mps 762 mmHg 68%
    09:00 +11°C° 0 mm 4 mps 762 mmHg 64%
    10:00 +13°C° 0 mm 5 mps 761 mmHg 60%
    11:00 +14°C° 0.2 mm 5 mps 761 mmHg 60%
    12:00 +14°C° 0.2 mm 6 mps 760 mmHg 60%
    13:00 +15°C° 0.2 mm 6 mps 760 mmHg 60%
    14:00 +14°C° 2.7 mm 5 mps 760 mmHg 69%
    15:00 +13°C° 2.7 mm 4 mps 759 mmHg 77%
    16:00 +12°C° 2.7 mm 3 mps 759 mmHg 86%
    17:00 +11°C° 2.1 mm 3 mps 760 mmHg 87%
    18:00 +12°C° 2.1 mm 2 mps 760 mmHg 88%
    19:00 +10°C° 2.1 mm 2 mps 760 mmHg 89%
    20:00 +9°C° 0.5 mm 3 mps 761 mmHg 86%
    21:00 +9°C° 0.5 mm 3 mps 761 mmHg 83%
    22:00 +8°C° 0.5 mm 3 mps 762 mmHg 80%
    23:00 +7°C° 0 mm 2 mps 762 mmHg 81%

    25 January, Thursday

    Time Temperature Precipitation Wind Pressure Humidity
    00:00 +7°C° 0 mm 2 mps 762 mmHg 82%
    01:00 +7°C° 0 mm 1 mps 763 mmHg 83%
    02:00 +7°C° 0 mm 1 mps 763 mmHg 83%
    03:00 +7°C° 0 mm 1 mps 763 mmHg 83%
    04:00 +5°C° 0 mm 2 mps 764 mmHg 83%
    05:00 +5°C° 0.2 mm 2 mps 764 mmHg 84%
    06:00 +6°C° 0.2 mm 2 mps 764 mmHg 84%
    07:00 +5°C° 0.2 mm 3 mps 764 mmHg 84%
    08:00 +5°C° 1.2 mm 3 mps 764 mmHg 84%
    09:00 +5°C° 1.2 mm 3 mps 764 mmHg 83%
    10:00 +7°C° 1.2 mm 3 mps 764 mmHg 83%
    11:00 +8°C° 0.4 mm 3 mps 764 mmHg 76%
    12:00 +9°C° 0.4 mm 3 mps 764 mmHg 70%
    13:00 +10°C° 0.4 mm 3 mps 764 mmHg 64%
    14:00 +10°C° 0.1 mm 3 mps 765 mmHg 64%
    15:00 +10°C° 0.1 mm 3 mps 765 mmHg 64%
    16:00 +11°C° 0.1 mm 3 mps 765 mmHg 64%
    17:00 +9°C° 0.1 mm 2 mps 765 mmHg 69%
    18:00 +8°C° 0.1 mm 2 mps 766 mmHg 74%
    19:00 +7°C° 0.1 mm 2 mps 767 mmHg 80%
    20:00 +7°C° 0.1 mm 2 mps 767 mmHg 81%
    21:00 +6°C° 0.1 mm 2 mps 767 mmHg 82%
    22:00 +6°C° 0.1 mm 2 mps 767 mmHg 83%
    23:00 +6°C° 0.1 mm 2 mps 768 mmHg 83%

    26 January, Friday

    Time Temperature Precipitation Wind Pressure Humidity
    00:00 +6°C° 0.1 mm 2 mps 768 mmHg 84%
    01:00 +6°C° 0.1 mm 2 mps 768 mmHg 84%
    02:00 +6°C° 0 mm 1 mps 768 mmHg 85%
    03:00 +6°C° 0 mm 1 mps 769 mmHg 85%
    04:00 +6°C° 0 mm 1 mps 769 mmHg 86%
    05:00 +6°C° 0 mm 1 mps 769 mmHg 86%
    06:00 +5°C° 0 mm 1 mps 770 mmHg 85%
    07:00 +5°C° 0 mm 1 mps 770 mmHg 85%
    08:00 +7°C° 0 mm 1 mps 770 mmHg 80%
    09:00 +8°C° 0 mm 1 mps 770 mmHg 75%
    10:00 +9°C° 0 mm 0 mps 770 mmHg 69%
    11:00 +11°C° 0 mm 1 mps 770 mmHg 66%
    12:00 +11°C° 0 mm 1 mps 770 mmHg 63%
    13:00 +12°C° 0 mm 2 mps 770 mmHg 59%
    14:00 +12°C° 0 mm 2 mps 769 mmHg 60%
    15:00 +12°C° 0 mm 2 mps 769 mmHg 61%
    16:00 +12°C° 0 mm 2 mps 769 mmHg 62%
    17:00 +9°C° 0 mm 2 mps 770 mmHg 68%
    18:00 +8°C° 0 mm 2 mps 770 mmHg 74%
    19:00 +7°C° 0 mm 2 mps 771 mmHg 80%
    20:00 +6°C° 0 mm 2 mps 771 mmHg 81%
    21:00 +6°C° 0 mm 2 mps 771 mmHg 83%
    22:00 +6°C° 0 mm 1 mps 771 mmHg 85%
    23:00 +6°C° 0 mm 1 mps 771 mmHg 85%
    Show more